Redmond, OR

8:51 AM PST on December 15, 2017 (GMT -0800)
Roberts Field Airport

Weather History for KRDM - May, 2013

Change the Weather History Date:

Friday, May 24, 2013

  Actual Average Record
Temperature  
Mean Temperature 46 °F 54 °F  
Max Temperature 59 °F 70 °F 93 °F (1999)
Min Temperature 32 °F 37 °F 25 °F (1978)
Degree Days  
Heating Degree Days 19 12  
Month to date heating degree days 288 350  
Since 1 July heating degree days 6134 6421  
Cooling Degree Days 0 0  
Month to date cooling degree days 9 0  
Year to date cooling degree days 9 0  
Moisture  
Dew Point 31 °F    
Average Humidity 60    
Maximum Humidity 92    
Minimum Humidity 28    
Precipitation  
Precipitation 0.00 in 0.03 in 0.71 in (1987)
Month to date precipitation 0.16 0.76  
Year to date precipitation 1.01 3.77  
Sea Level Pressure  
Sea Level Pressure 30.00 in    
Wind  
Wind Speed 7 mph (NNW)    
Max Wind Speed 20 mph    
Max Gust Speed 26 mph    
Visibility 10 miles    
Events      
T = Trace of Precipitation, MM = Missing Value Source: NWS Daily Summary

Daily Weather History Graph

Daily Weather History Graph

Search for Another Location

Airport or City:

Trip Planner

Search our weather history database for the weather conditions in past years. The results will help you decide how hot, cold, wet, or windy it might be!

Date:

Astronomy

May. 24, 2013 Rise Set
Actual Time 5:28 AM PDT 8:34 PM PDT
Civil Twilight 4:54 AM PDT 9:09 PM PDT
Nautical Twilight 4:09 AM PDT 9:54 PM PDT
Astronomical Twilight 3:16 AM PDT 10:48 PM PDT
Moon 8:21 PM PDT (5/24) 5:07 AM PDT (5/24)
Length of Visible Light 16h 15m
Length of Day
15h 05m
Full, 100% of the Moon is Illuminated
May 24
Full
May 24
Full
May 31
Last Quarter
Jun 8
New
Jun 16
First Quarter

Hourly Weather History & Observations

Time (PDT) Temp. Windchill Dew Point Humidity Pressure Visibility Wind Dir Wind Speed Gust Speed Precip Events Conditions
12:56 AM 39.0 °F 36.8 °F 36.0 °F 89% 29.97 in 10.0 mi East 3.5 mph - N/A   Overcast
1:56 AM 37.0 °F 34.5 °F 34.0 °F 89% 29.96 in 10.0 mi East 3.5 mph - N/A   Clear
2:56 AM 36.0 °F - 34.0 °F 93% 29.96 in 10.0 mi Calm Calm - N/A   Mostly Cloudy
3:56 AM 32.0 °F - 30.9 °F 96% 29.96 in 10.0 mi Calm Calm - N/A   Overcast
4:56 AM 37.0 °F - 34.0 °F 89% 29.96 in 10.0 mi Calm Calm - N/A   Overcast
5:56 AM 37.0 °F - 34.0 °F 89% 29.98 in 10.0 mi Calm Calm - N/A   Overcast
6:56 AM 39.9 °F - 37.0 °F 89% 29.99 in 10.0 mi Calm Calm - N/A   Overcast
7:56 AM 44.1 °F - 35.1 °F 71% 30.00 in 10.0 mi Calm Calm - N/A   Mostly Cloudy
8:56 AM 48.0 °F - 34.0 °F 58% 30.00 in 10.0 mi NNW 6.9 mph - N/A   Mostly Cloudy
9:56 AM 48.0 °F - 33.1 °F 56% 30.00 in 10.0 mi NNE 5.8 mph - N/A   Mostly Cloudy
10:56 AM 51.1 °F - 30.9 °F 46% 30.00 in 10.0 mi NNW 5.8 mph - N/A   Overcast
11:56 AM 55.0 °F - 30.0 °F 38% 29.99 in 10.0 mi NW 6.9 mph 16.1 mph N/A   Partly Cloudy
12:56 PM 57.9 °F - 28.9 °F 33% 29.99 in 10.0 mi NW 13.8 mph 19.6 mph N/A   Clear
1:56 PM 57.9 °F - 27.0 °F 31% 29.99 in 10.0 mi North 13.8 mph 20.7 mph N/A   Clear
2:04 PM 57.2 °F - 26.6 °F 31% 29.99 in 10.0 mi NW 11.5 mph 23.0 mph N/A   Clear
2:56 PM 57.9 °F - 25.0 °F 28% 30.00 in 10.0 mi WNW 15.0 mph 20.7 mph N/A   Clear
3:56 PM 59.0 °F - 27.0 °F 29% 30.00 in 10.0 mi NW 11.5 mph - N/A   Mostly Cloudy
4:56 PM 55.9 °F - 27.0 °F 33% 30.00 in 10.0 mi NW 10.4 mph 18.4 mph N/A   Mostly Cloudy
5:56 PM 55.9 °F - 28.9 °F 36% 30.00 in 10.0 mi NW 16.1 mph 21.9 mph N/A   Clear
6:56 PM 54.0 °F - 30.0 °F 40% 30.01 in 10.0 mi NW 16.1 mph - N/A   Clear
7:56 PM 51.1 °F - 30.9 °F 46% 30.01 in 10.0 mi WNW 13.8 mph - N/A   Clear
8:56 PM 48.0 °F - 32.0 °F 54% 30.02 in 10.0 mi NNW 9.2 mph - N/A   Clear
9:56 PM 45.0 °F 41.2 °F 30.9 °F 58% 30.04 in 10.0 mi NNW 6.9 mph - N/A   Clear
10:56 PM 44.1 °F 40.1 °F 32.0 °F 63% 30.03 in 10.0 mi WNW 6.9 mph - N/A   Clear
11:56 PM 39.0 °F - 30.9 °F 73% 30.03 in 10.0 mi Calm Calm - N/A   Clear